Regional Weather Roundup
Issued by NWS

Home | Current Version | Previous Version | Graphics & Text | Print | Product List | Glossary On
Versions: 1 2 3 4 5 6 7 8 9 10 11 12 13 14 15 16 17 18 19 20 21 22 23 24 25 26 27 28 29 30 31 32 33 34 35 36 37 38 39 40 41 42 43 44 45 46 47 48 49 50
000
ASUS43 KOAX 170302
RWRNE

WEATHER ROUNDUP FOR NEBRASKA
NATIONAL WEATHER SERVICE OMAHA NE
1000 PM CDT TUE SEP 16 2014

NOTES: SATELLITE DATA IS BEING USED TO AUGMENT CLOUD COVER ABOVE
       12000 FEET.
       "FAIR" INDICATES FEW OR NO CLOUDS BELOW 12,000 FEET WITH NO
       SIGNIFICANT WEATHER AND/OR OBSTRUCTIONS TO VISIBILITY.

  * THESE STATIONS DO NOT REPORT WEATHER SUCH AS RAIN...SNOW OR FOG.

NEZ001>004-019>022-054>056-170400-
NEBRASKA PANHANDLE

CITY           SKY/WX    TMP DP  RH WIND       PRES   REMARKS
SCOTTSBLUFF    CLEAR     62  49  62 E10       29.99R
ALLIANCE       CLEAR     59  44  57 E6        30.00R
CHADRON        CLEAR     63  47  55 CALM      29.95R
KIMBALL        CLEAR     62  39  41 S9        30.06R
SIDNEY         CLEAR     60  45  57 S7        30.04S
$$

NEZ057>060-069>072-079>082-170400-
SOUTHWEST NEBRASKA

CITY           SKY/WX    TMP DP  RH WIND       PRES   REMARKS
NORTH PLATTE   CLEAR     56  54  93 E6        29.99R
IMPERIAL       CLEAR     59  53  80 SE9       29.99F
LEXINGTON      CLEAR     60  57  89 SE6       30.00R
MCCOOK         CLEAR     64  59  83 E9        29.98R
OGALLALA       CLEAR     60  56  85 CALM      29.99S
$$

NEZ005>010-023>029-035>040-094-170400-
NORTH CENTRAL NEBRASKA

CITY           SKY/WX    TMP DP  RH WIND       PRES   REMARKS
VALENTINE      PTCLDY    57  53  86 CALM      29.94S
BROKEN BOW     CLEAR     55  53  93 SE6       29.98F
O`NEILL        CLEAR     59  57  91 S9        29.96F
ORD            CLEAR     54  52  93 CALM      29.97S
THEDFORD       CLEAR     65  59  81 S9        29.97S
$$

NEZ041-046>049-061>064-073>077-083>087-170400-
SOUTH CENTRAL NEBRASKA

CITY           SKY/WX    TMP DP  RH WIND       PRES   REMARKS
GRAND ISLAND   CLEAR     59  53  80 S7        30.00S
HASTINGS       CLEAR     59  50  72 SE6       30.01S
HEBRON         PTCLDY    57  52  83 CALM      30.01S
HOLDREGE       CLEAR     57  54  89 SE6       30.00S
KEARNEY *      CLEAR     55  52  88 E5        30.01R
YORK           CLOUDY    61  54  77 S6        30.01F
$$

NEZ011>018-030>034-042>045-170400-
NORTHEAST NEBRASKA

CITY           SKY/WX    TMP DP  RH WIND       PRES   REMARKS
NORFOLK        PTCLDY    61  50  67 S10       29.99S
ALBION         CLEAR     56  51  85 SE3       29.99F
COLUMBUS *     CLOUDY    63  52  67 SE6       30.00F
FREMONT        CLOUDY    63  52  65 SE5       30.02S
TEKAMAH        CLOUDY    60  54  80 SE3       30.01F
WAYNE          CLOUDY    59  52  77 S9        30.00S
$$

NEZ050>053-065>068-078-088>093-170400-
SOUTHEAST NEBRASKA

CITY           SKY/WX    TMP DP  RH WIND       PRES   REMARKS
LINCOLN        CLOUDY    65  51  60 SE9       30.02S
OMAHA EPPLEY   CLOUDY    64  50  60 SE10      30.02F
BEATRICE       CLOUDY    65  53  64 SE3       30.01F
FALLS CITY     CLOUDY    63  55  75 E5        30.03S
NEBRASKA CITY  CLOUDY    62  47  56 SE6       30.03F
PLATTSMOUTH    CLOUDY    62  49  62 SE6       30.03F
$$

NEZ044-045-051>053-067-170400-
OMAHA AREA

CITY           SKY/WX    TMP DP  RH WIND       PRES   REMARKS
OMAHA EPPLEY   CLOUDY    64  50  60 SE10      30.02F
FREMONT        CLOUDY    63  52  65 SE5       30.02S
MILLARD        CLOUDY    64  52  65 SE7       30.01F
OFFUTT AFB     CLOUDY    62  56  80 SE9       30.02F
PLATTSMOUTH    CLOUDY    62  49  62 SE6       30.03F
WAHOO          CLOUDY    62  52  70 SE6       30.01S
$$


USA.gov is the U.S. government's official web portal to all federal, state and local government web resources and services.